Flag for Germany

Past Weather in Garbsen, Lower Saxony, Germany — Yesterday and Last 2 Weeks

Now
84 °F

Passing clouds.


Feels Like: 84 °F
Forecast: 91 / 71 °F
Wind: 7 mph from Southeast

Location: Hannover

Current Time: Aug 10, 2020 at 9:05:46 pm

Latest Report: Aug 10, 2020 at 8:20 pm


Visibility: N/A

Pressure: 30.01 "Hg

Humidity: 43%

Dew Point: 59 °F

Location of GarbsenLocation

Past Weather in Garbsen — Graph

°F

Garbsen Temperature Yesterday

Maximum temperature yesterday: 95 °F (at 3:20 pm)
Minimum temperature yesterday: 66 °F (at 4:20 am)
Average temperature yesterday: 80 °F

High & Low Weather Summary for the Past Weeks

 TemperatureHumidityPressure
High97 °F (Aug 8, 3:20 pm)100% (Jul 30, 4:50 am)30.18 "Hg (Jul 30, 4:50 am)
Low46 °F (Jul 30, 4:50 am)22% (Aug 6, 4:50 pm)29.68 "Hg (Jul 28, 2:50 am)
Average70 °F61%30.02 "Hg
* Reported Jul 26 7:20 pm — Aug 10 7:50 pm, Garbsen. Weather by CustomWeather, © 2020

Note: Actual official high and low records may vary slightly from our data, if they occured in-between our weather recording intervals... More about our weather records

Garbsen Weather History for the Previous 24 Hours

Scroll right to see more
 ConditionsComfort  
Time TempWeatherWind HumidityBarometerVisibility
7:50 pm
Mon, Aug 10
86 °FPassing clouds.9 mph38%30.01 "HgN/A
7:20 pm86 °FPassing clouds.9 mph38%29.98 "HgN/A
6:50 pm86 °FPassing clouds.10 mph40%29.98 "HgN/A
6:20 pm88 °FPassing clouds.10 mph38%30.01 "HgN/A
5:50 pm88 °FPassing clouds.12 mph38%30.01 "HgN/A
5:20 pm88 °FPassing clouds.14 mph38%30.01 "HgN/A
4:50 pm88 °FPassing clouds.10 mph40%30.01 "HgN/A
4:20 pm88 °FPassing clouds.9 mph40%30.01 "HgN/A
3:50 pm88 °FPassing clouds.9 mph40%30.01 "HgN/A
3:20 pm88 °FPassing clouds.10 mph43%30.04 "HgN/A
2:50 pm88 °FPassing clouds.8 mph43%30.04 "HgN/A
2:20 pm86 °FPassing clouds.8 mph46%30.04 "HgN/A
1:50 pm84 °FPassing clouds.10 mph45%30.04 "HgN/A
1:20 pm84 °FPassing clouds.10 mph45%30.04 "HgN/A
12:50 pm82 °FPassing clouds.8 mph55%30.04 "HgN/A
12:20 pm82 °FPassing clouds.7 mph51%30.04 "HgN/A
11:50 am84 °FPassing clouds.8 mph55%30.04 "HgN/A
11:20 am81 °FSunny.7 mph58%30.04 "Hg10 mi
10:50 am79 °FSunny.2 mph65%30.04 "Hg10 mi
10:20 am77 °FPassing clouds.6 mph69%30.04 "HgN/A
9:50 am77 °FScattered showers. Passing clouds.6 mph65%30.04 "HgN/A
9:20 am73 °FSprinkles. Passing clouds.5 mph78%30.04 "HgN/A
8:50 am73 °FScattered showers. Passing clouds.3 mph74%30.04 "HgN/A
8:20 am72 °FScattered showers. Passing clouds.3 mph83%30.04 "HgN/A
7:50 am70 °FScattered showers. Passing clouds.3 mph83%30.04 "HgN/A
7:20 am68 °FScattered showers. Passing clouds.2 mph88%30.04 "HgN/A
6:50 am68 °FScattered showers. Passing clouds.5 mph88%30.04 "HgN/A
6:20 am66 °FSunny.6 mph94%30.01 "Hg10 mi
5:50 am66 °FClear.2 mph94%30.01 "Hg10 mi
5:20 am66 °FClear.2 mph94%30.01 "Hg10 mi
4:50 am66 °FClear.7 mph94%30.04 "Hg10 mi
4:20 am68 °FPassing clouds.3 mph94%30.04 "HgN/A
3:50 am70 °FPassing clouds.3 mph88%30.04 "HgN/A
3:20 am70 °FPassing clouds.3 mph88%30.04 "HgN/A
2:50 am68 °FClear.5 mph94%30.04 "Hg10 mi
1:50 am70 °FScattered showers. Passing clouds.5 mph83%30.04 "HgN/A
1:20 am72 °FSprinkles. Passing clouds.5 mph78%30.01 "HgN/A
12:50 am75 °FRain showers. Passing clouds.7 mph65%30.01 "Hg5 mi
12:20 am72 °FSprinkles. Passing clouds.8 mph83%30.04 "Hg5 mi
11:50 pm
Sun, Aug 9
72 °FStrong thunderstorms. Passing clouds.7 mph83%30.07 "Hg3 mi
11:20 pm77 °FThunderstorms. Passing clouds.5 mph61%30.04 "HgN/A
10:50 pm79 °FSprinkles. Passing clouds.5 mph58%30.04 "HgN/A
10:20 pm81 °FThundershowers. Passing clouds.8 mph51%30.04 "HgN/A
9:50 pm84 °FSprinkles. Passing clouds.7 mph48%30.04 "HgN/A
9:20 pm82 °FScattered showers. Passing clouds.8 mph51%30.01 "HgN/A
Weather by CustomWeather, © 2020

See weather overview